ECMWFFLT2_925_thetae_024.txt.gz
Theta_e
329 329 328 328 328 328 329 330 331 332 331 332 332 332 332 332 332 332 332 332 332 333 333 333 333 334 336 335 335 334 334 335 335 331 330 332 333 333 331 330 329 328 328 328 328 327 326 327 326 326 327 330 329 327 333 335 333 332 332 331 331 331
329 329 329 329 328 329 330 329 330 330 331 331 332 332 332 332 333 333 332 332 332 333 332 333 332 332 335 335 335 335 334 334 335 333 332 332 333 333 333 331 330 329 328 328 328 328 326 326 326 326 327 329 327 328 333 335 333 332 331 331 331 330
328 328 328 328 328 328 329 328 329 330 330 331 332 333 333 332 333 333 333 333 332 332 332 332 331 331 334 335 335 335 334 334 335 334 333 332 333 333 333 332 331 329 329 328 327 327 325 323 324 324 325 326 326 329 333 334 333 332 332 331 330 329
328 327 327 328 328 328 328 328 329 329 329 330 332 334 334 332 333 334 334 333 333 333 332 332 332 332 333 335 335 335 334 334 335 335 333 333 334 333 332 331 330 329 329 328 327 326 325 324 325 324 322 324 326 330 333 333 333 332 332 331 329 328
330 328 327 327 327 328 328 329 329 329 329 330 332 333 333 332 333 334 334 334 333 333 333 333 333 333 333 334 335 334 334 334 334 335 334 332 333 333 331 329 329 328 328 327 327 326 326 326 328 326 324 324 327 330 330 332 334 332 332 330 329 327
333 332 330 330 328 328 329 329 329 329 329 330 332 334 333 333 333 334 334 333 333 334 334 334 334 334 334 334 334 334 334 333 332 333 333 333 333 332 331 329 328 328 328 327 327 327 328 328 329 329 327 327 329 329 328 330 333 332 331 330 328 326
338 337 335 334 333 332 331 330 329 329 329 329 331 334 334 333 333 334 335 334 333 333 334 334 334 333 334 334 334 334 334 332 331 332 332 333 333 332 331 330 329 329 329 327 327 328 329 330 329 329 329 328 328 329 328 330 333 332 330 329 327 325
341 340 338 338 338 338 336 333 332 330 330 329 330 332 334 334 334 335 335 334 334 334 334 334 334 334 335 334 333 333 333 332 331 331 331 332 333 332 332 332 330 331 330 328 328 329 330 330 330 330 329 329 329 329 329 330 333 332 330 328 327 325
342 341 340 341 341 341 341 338 336 333 333 333 332 332 334 334 335 335 335 334 335 334 334 334 333 334 335 334 333 333 333 332 331 331 331 332 331 332 332 332 331 330 331 330 329 330 330 330 330 330 330 328 329 328 328 330 332 332 330 328 327 326
342 341 341 342 341 341 341 340 338 337 338 338 337 336 335 336 336 336 335 335 335 335 335 335 334 334 335 335 334 333 333 333 332 331 332 332 332 331 331 331 330 329 331 331 331 330 329 329 330 330 329 328 328 328 328 330 332 332 331 329 328 327
342 341 340 340 340 340 340 340 339 339 339 339 338 338 338 338 337 337 336 336 336 335 335 334 334 334 334 335 334 334 333 333 332 332 332 332 332 331 330 330 330 329 330 330 331 329 327 327 328 330 329 328 328 327 328 330 331 332 333 331 330 328
342 340 339 338 338 339 339 339 339 339 339 338 337 339 338 338 338 337 337 336 336 335 335 334 334 334 334 334 334 334 334 332 332 332 332 332 332 331 331 330 329 329 329 330 330 329 326 326 328 329 329 329 328 327 328 330 331 331 332 332 331 331
342 339 338 337 337 337 338 337 337 338 338 337 337 338 337 337 337 336 336 336 336 335 334 334 333 333 334 335 334 334 333 333 332 332 332 331 331 331 331 330 329 329 330 330 330 329 326 325 327 327 327 328 327 327 327 328 331 331 331 332 332 332
340 337 336 335 336 336 335 335 335 336 335 335 336 336 336 336 336 335 335 335 335 335 334 334 333 333 334 335 334 333 332 331 332 332 332 332 331 331 331 330 330 330 330 330 330 328 325 323 325 326 326 327 326 328 327 327 330 331 332 332 332 332
338 336 335 334 334 334 333 333 333 333 333 333 334 334 335 335 335 335 335 335 335 335 335 334 333 333 334 335 334 333 332 331 332 332 332 332 332 331 330 331 330 330 329 330 329 327 324 323 325 326 327 328 327 328 328 328 329 330 331 332 331 331
336 335 333 333 333 333 332 331 330 331 331 332 332 333 334 334 334 335 334 334 334 334 335 334 334 334 334 335 334 332 332 332 332 333 333 332 332 331 332 331 330 329 329 329 327 325 323 323 325 326 329 329 328 329 329 329 329 329 330 331 331 332
332 331 329 329 331 332 332 330 329 330 330 330 331 332 332 333 333 333 333 333 333 333 334 333 333 333 333 334 334 332 333 333 332 332 333 333 332 332 332 331 330 330 330 327 324 323 323 323 325 326 328 329 329 329 329 329 328 328 329 329 329 330
329 329 328 329 330 329 328 328 328 329 329 329 330 331 331 331 332 332 332 332 331 332 332 332 332 332 333 333 333 332 332 332 332 332 332 333 333 333 332 331 331 330 329 327 325 325 325 325 325 326 328 328 329 330 329 329 328 328 328 328 329 328
328 328 328 328 327 326 324 325 326 328 330 330 329 329 328 328 330 330 330 329 329 330 330 331 331 331 332 332 331 332 332 332 332 332 332 332 332 333 332 331 331 330 329 327 327 327 327 327 326 326 328 328 329 329 329 329 329 328 327 328 329 329
327 327 327 326 325 324 324 325 326 327 329 329 329 329 329 328 328 329 329 329 329 328 328 330 330 330 330 331 331 331 331 331 332 332 333 332 331 332 332 331 331 330 330 329 328 328 328 328 328 328 328 328 328 328 328 328 328 327 326 327 329 329
327 326 326 324 323 324 325 326 326 326 327 328 329 329 329 329 328 328 328 327 327 326 327 328 328 329 329 330 330 330 330 330 332 332 331 331 331 331 332 331 330 330 330 329 329 329 329 329 330 329 329 329 327 325 326 327 327 326 325 325 327 327
326 326 325 323 321 322 323 325 326 326 326 327 327 326 326 326 325 325 325 324 323 323 325 325 325 326 328 329 328 328 328 329 330 331 331 330 330 331 331 331 331 330 330 329 329 329 329 330 329 329 330 330 328 326 325 326 326 327 326 325 325 324
327 327 325 323 320 321 322 324 324 325 326 325 324 324 323 323 323 323 323 322 321 321 322 323 323 324 326 327 327 327 326 327 328 328 330 330 330 331 330 331 331 331 330 329 329 329 329 329 329 329 329 329 330 330 330 328 327 327 325 325 324 323
327 327 324 322 322 322 322 323 324 324 323 322 320 320 320 320 321 322 322 322 322 321 321 321 322 323 323 324 326 326 326 327 327 328 329 330 330 330 329 330 330 330 330 329 328 329 328 328 328 329 329 328 328 330 333 332 329 329 327 326 326 324
325 326 323 322 323 322 322 323 323 322 321 320 319 319 319 320 321 322 322 322 322 321 320 320 321 322 323 324 325 326 326 326 327 328 329 329 329 328 328 329 329 329 329 328 328 328 328 327 327 328 328 329 330 331 335 332 330 330 329 329 328 328
324 325 324 325 324 323 322 322 322 321 321 321 321 320 320 321 322 322 322 322 322 321 321 320 320 321 323 323 324 325 325 325 326 327 327 327 326 326 326 328 329 329 329 329 329 328 328 327 327 327 327 329 330 331 332 330 330 331 328 329 330 330
324 327 326 326 324 322 322 322 321 321 320 320 321 321 321 322 322 322 322 321 321 320 321 321 320 320 321 323 324 325 325 324 324 325 326 325 325 325 325 325 326 327 328 329 329 328 328 327 327 327 327 328 327 328 329 328 330 330 330 330 329 328
327 327 324 324 322 322 322 322 321 320 319 320 322 322 321 321 320 320 320 320 319 319 320 320 321 320 319 321 323 323 324 323 323 324 324 324 325 324 324 324 324 325 327 328 328 328 327 327 327 327 327 327 327 328 328 328 328 327 330 333 330 328
329 328 322 322 322 322 322 321 320 318 319 321 322 322 321 320 320 321 321 320 321 320 319 320 320 320 318 318 320 320 320 320 321 322 323 322 323 323 322 322 323 324 325 326 326 327 326 326 326 327 327 327 326 328 328 327 325 324 327 330 331 330
329 328 322 322 322 321 321 320 317 317 319 321 322 321 320 320 322 322 321 320 320 319 318 318 318 319 317 315 316 316 315 313 314 317 319 320 321 321 320 320 321 322 323 324 324 322 321 321 322 323 325 326 327 327 325 321 320 320 322 324 326 326
329 328 323 323 323 321 321 317 316 318 320 321 321 320 320 321 322 321 319 319 318 317 317 316 316 316 316 315 315 315 313 312 313 314 315 317 318 318 318 318 319 319 320 320 318 317 317 317 318 318 320 323 324 322 319 316 316 316 317 318 321 320
328 328 325 323 323 322 319 316 317 320 321 321 321 319 320 322 321 320 317 317 316 316 315 315 314 314 314 315 315 314 314 315 315 315 315 314 315 316 317 317 317 318 318 317 316 316 316 316 316 316 316 316 317 316 315 315 315 314 314 315 317 316
329 327 325 324 324 322 317 315 319 322 321 320 320 319 321 322 321 319 317 316 316 315 314 313 313 313 312 313 315 314 314 315 315 314 314 313 313 313 314 314 314 314 317 317 316 314 314 314 314 314 313 312 313 313 313 313 313 313 314 313 313 313
328 327 325 324 323 320 316 316 320 322 321 320 319 319 321 321 320 318 317 316 315 311 311 311 310 311 311 311 312 312 314 315 314 313 314 313 312 310 309 309 307 308 312 315 316 314 314 314 313 312 312 312 312 313 313 312 312 312 313 313 313 313
325 325 324 324 323 319 317 318 320 321 321 320 318 319 320 321 320 318 318 317 314 310 310 309 309 311 311 309 309 310 313 313 313 313 315 314 313 310 306 306 305 305 306 308 312 314 313 313 313 312 311 311 312 312 311 310 309 311 312 313 312 312
324 326 325 324 322 319 317 319 320 321 321 320 319 318 320 320 319 319 318 317 314 313 312 311 310 312 313 310 308 308 309 310 312 314 314 314 314 310 306 306 307 306 306 306 307 312 314 313 313 312 310 309 309 310 309 307 307 309 311 312 312 312
324 326 326 324 322 319 317 319 320 322 321 320 319 319 319 320 320 319 319 318 317 315 314 313 312 313 314 312 309 307 307 308 311 313 314 314 313 310 307 306 307 308 308 306 306 309 313 313 313 312 310 307 308 309 309 309 308 309 310 310 310 310

ECMWFFLT2_925_thetae_027.txt.gz
Theta_e
337 336 335 336 336 336 338 338 336 335 334 333 332 332 332 331 332 332 332 332 333 333 334 334 334 335 335 335 333 334 334 334 331 330 331 332 332 332 330 329 327 326 326 326 326 326 327 326 326 327 328 327 328 333 333 333 333 332 332 331 329 329
336 336 335 336 336 337 338 337 334 334 333 332 333 333 332 333 333 333 333 332 333 333 332 332 333 334 335 335 334 334 334 335 334 332 332 332 332 332 330 329 328 327 327 326 326 326 327 326 326 326 327 327 327 332 334 332 333 332 332 331 330 329
334 334 333 333 333 335 335 334 333 333 333 332 334 335 333 334 333 332 331 332 332 332 332 332 332 332 334 335 335 334 334 335 335 333 332 332 333 332 331 329 328 328 327 326 326 325 325 324 325 326 325 326 327 330 333 333 332 332 332 331 330 329
332 332 331 330 330 332 332 331 332 332 332 332 334 334 333 333 332 332 332 332 331 331 332 331 332 333 335 335 335 335 334 334 335 334 333 333 333 333 331 330 328 328 327 326 325 325 323 323 325 326 325 325 327 329 332 333 332 332 331 331 330 328
332 331 330 329 329 329 329 329 330 331 330 331 333 333 333 333 333 333 333 332 331 331 331 331 332 333 335 335 335 335 334 334 334 334 333 332 333 332 331 329 328 327 327 326 325 325 324 325 327 327 326 326 327 328 330 333 333 332 332 331 330 328
332 331 330 328 328 329 328 328 329 329 329 330 332 333 334 334 333 333 333 332 331 331 331 331 332 333 334 335 335 335 334 333 333 333 333 332 332 332 330 327 326 326 326 326 326 326 325 326 328 327 328 328 328 328 328 331 333 332 331 331 329 327
330 330 329 327 328 328 328 328 328 329 329 330 331 333 334 333 333 333 333 332 331 331 331 331 332 333 334 335 335 335 334 333 332 333 333 332 332 331 330 328 327 327 327 326 325 327 327 328 327 328 329 328 329 329 328 330 333 332 331 331 329 326
329 329 328 328 327 327 327 327 328 328 329 329 331 332 333 333 333 333 333 333 332 332 331 332 332 333 334 334 335 334 334 333 331 332 333 332 331 330 330 330 329 329 330 327 326 328 328 328 328 327 328 328 329 329 328 330 333 333 331 330 329 326
331 331 330 330 330 330 329 329 329 328 329 329 330 332 334 334 333 333 334 334 333 333 332 332 333 333 334 334 334 334 333 333 331 331 332 331 330 330 330 331 330 331 331 329 327 329 329 329 329 327 328 328 329 329 328 329 332 332 331 330 328 326
334 335 335 334 334 335 334 334 333 331 330 330 330 331 334 334 334 333 334 334 334 334 333 333 333 333 334 334 333 334 333 333 331 331 332 331 330 330 330 331 331 330 330 330 329 330 329 329 329 329 328 328 329 329 328 329 331 332 332 330 328 327
337 339 339 338 338 339 339 339 339 337 334 332 332 333 333 334 333 334 334 334 335 334 334 334 335 334 334 334 333 333 333 333 332 332 332 332 332 331 331 330 330 330 329 329 330 330 329 327 327 328 329 329 329 328 327 329 331 332 331 330 329 329
341 341 340 340 340 340 340 340 340 339 337 335 335 337 336 336 335 336 336 336 335 335 335 335 335 334 334 334 334 333 333 333 333 332 332 332 332 332 331 330 330 329 329 329 330 330 328 325 326 328 329 329 329 328 327 328 330 332 331 330 329 329
342 341 341 340 340 339 339 338 338 338 338 338 338 339 338 338 337 337 337 336 336 336 335 335 334 334 333 333 333 334 334 333 333 333 332 332 332 331 331 331 330 329 329 329 330 330 328 324 325 327 327 328 328 327 327 326 329 331 331 330 329 329
341 340 339 338 337 337 336 336 335 336 337 338 338 338 338 338 338 337 336 336 336 336 335 335 334 334 333 333 333 334 334 333 333 332 332 331 331 331 331 331 330 329 329 330 329 329 327 324 325 326 326 327 327 327 327 326 327 330 331 331 330 329
339 339 337 336 336 335 334 334 334 335 336 337 337 337 337 337 337 337 336 336 335 335 335 335 334 333 333 333 334 334 333 333 332 331 331 331 331 331 331 330 330 329 329 330 328 327 327 324 324 326 327 327 327 327 327 326 327 329 330 331 331 330
339 338 336 335 335 333 334 334 334 335 335 335 335 336 337 336 336 336 336 335 335 334 334 334 334 333 332 333 333 333 332 332 331 331 332 332 332 331 331 330 330 330 329 329 328 327 326 324 324 327 328 328 328 328 328 327 327 328 330 331 331 331
339 336 334 334 334 334 334 334 334 335 334 333 333 334 335 335 334 335 334 334 334 334 334 334 333 332 332 332 331 331 330 331 332 332 332 332 332 332 331 331 330 329 328 328 326 324 323 323 325 328 329 329 329 328 328 328 328 329 330 331 331 331
338 334 334 335 334 335 334 334 334 333 332 332 332 333 333 333 333 333 333 333 332 332 332 332 332 331 332 332 331 331 330 330 332 332 332 333 333 332 331 331 330 328 328 328 325 324 324 323 325 327 328 329 329 328 328 328 328 328 329 330 330 331
337 334 335 335 335 334 333 332 332 331 330 330 331 331 331 331 331 331 331 331 330 331 331 331 331 330 331 331 331 331 330 330 331 331 330 331 332 332 332 332 330 328 329 328 326 326 326 325 326 326 327 328 328 328 328 328 328 328 328 329 329 328
336 334 334 334 334 332 331 331 330 330 329 329 329 329 329 329 329 330 329 328 328 328 329 330 330 330 330 331 331 330 330 330 331 330 330 330 332 332 332 331 330 330 329 328 327 327 327 327 327 327 327 328 328 328 328 327 327 326 327 328 328 328
333 332 332 332 332 331 329 329 330 330 329 328 328 327 328 328 328 328 328 327 326 326 327 328 328 329 329 330 330 330 330 330 330 331 331 331 331 331 331 332 330 330 330 329 328 328 328 328 329 329 328 328 327 327 326 327 327 325 324 326 327 328
330 330 330 330 329 327 325 326 328 329 328 328 327 326 327 327 327 327 326 324 323 325 325 325 326 328 328 328 328 328 329 330 330 331 330 331 331 330 331 331 330 330 329 329 329 329 329 329 329 329 328 329 328 327 326 327 328 326 324 325 325 326
328 329 328 327 326 324 324 325 327 328 328 327 327 326 326 326 325 324 324 322 321 322 323 323 325 326 327 327 327 327 327 329 330 330 330 330 330 330 331 331 330 330 330 329 329 329 329 329 329 328 328 329 329 329 329 328 327 326 325 325 324 324
327 326 326 325 324 324 324 325 326 326 326 326 324 323 323 323 323 323 322 322 320 320 321 322 323 323 325 325 327 327 327 328 328 329 329 330 330 330 330 330 330 330 330 329 329 329 329 328 329 328 328 327 326 329 331 328 327 328 326 324 324 324
326 325 324 324 323 324 323 323 324 325 325 323 322 321 321 322 322 322 322 321 321 320 320 321 322 322 322 324 326 326 327 327 328 329 329 329 329 329 329 329 329 330 329 329 329 328 328 328 328 328 328 328 328 331 332 327 326 329 328 327 327 326
325 324 322 321 322 322 323 323 324 324 323 322 321 320 320 321 321 321 321 321 320 320 320 321 321 322 322 323 325 325 325 326 327 328 328 327 327 327 328 329 329 329 328 328 328 327 327 327 327 327 327 328 328 329 329 326 327 328 327 328 330 330
324 323 322 320 321 322 323 323 323 323 323 321 319 318 319 320 321 321 321 321 320 320 320 320 320 321 321 323 325 324 324 325 326 326 325 325 325 326 326 327 328 328 328 328 328 327 327 326 326 326 327 327 327 327 327 327 328 328 328 328 328 328
324 321 322 321 321 322 323 323 323 322 322 320 316 315 318 320 321 321 321 321 321 320 319 319 320 320 320 323 324 323 323 324 325 325 325 324 324 324 325 325 326 327 328 328 327 328 327 326 326 325 326 327 326 327 326 326 326 326 328 329 327 325
324 321 321 322 322 323 322 323 322 321 320 318 316 315 318 321 321 321 320 320 320 319 319 319 319 320 321 322 323 322 322 323 324 324 324 323 322 322 323 324 325 326 327 327 326 327 326 326 326 326 326 326 326 327 325 323 324 323 326 328 329 327
324 323 323 324 324 322 322 322 321 320 319 318 318 319 319 319 320 319 319 319 319 319 319 318 317 318 320 320 319 318 318 320 321 322 322 322 321 320 321 322 324 324 324 323 322 323 323 323 324 325 326 326 326 326 322 318 319 320 321 322 324 323
325 325 325 325 324 322 322 322 321 320 319 318 320 320 318 318 319 319 320 320 319 318 318 318 317 316 317 316 315 314 312 313 317 319 320 320 319 319 319 319 321 321 319 318 317 318 318 319 321 323 325 325 324 321 317 315 315 316 317 317 320 318
325 325 325 324 323 322 321 321 321 320 318 318 320 318 317 319 320 320 320 319 319 317 316 316 316 316 315 315 315 313 310 309 311 313 315 316 316 316 317 318 319 318 316 316 316 317 317 317 318 319 319 319 317 315 314 314 314 314 314 314 315 315
326 326 324 323 321 321 321 321 320 318 318 319 319 317 317 318 319 320 319 318 317 316 315 314 315 316 316 316 315 313 309 309 309 310 309 310 311 312 314 316 317 316 315 315 315 315 316 315 315 315 314 313 313 313 313 313 313 313 313 312 312 312
326 327 325 322 321 321 321 320 319 317 318 319 319 317 316 317 319 320 318 316 316 315 315 313 313 315 315 315 314 311 309 310 311 310 308 306 307 308 308 310 314 316 316 314 314 314 314 313 313 312 312 312 312 311 310 311 311 312 312 312 311 311
325 328 326 321 320 320 319 319 317 317 319 319 318 317 316 316 319 320 317 315 315 314 313 313 312 314 314 314 313 310 309 310 311 310 308 305 305 305 304 304 308 312 314 314 313 313 312 312 311 311 311 311 310 308 309 310 311 311 312 311 311 311
325 326 325 322 320 319 318 317 317 318 320 319 319 317 315 316 318 319 316 314 314 314 312 312 312 313 314 313 310 309 309 309 309 310 309 307 305 304 304 304 304 306 309 313 313 313 312 311 310 308 308 309 308 308 309 310 310 310 310 310 310 310
323 324 323 321 320 318 317 317 318 319 320 320 319 317 315 315 317 319 317 315 314 313 312 311 312 313 313 312 311 309 309 308 308 309 309 309 307 305 305 305 304 303 306 309 312 312 312 311 309 307 306 307 307 308 309 310 309 309 309 309 309 309

ECMWFFLT2_925_thetae_030.txt.gz
Theta_e
337 334 333 336 337 336 335 335 337 337 336 336 334 332 331 331 331 329 329 329 331 333 334 334 334 335 334 333 332 333 332 332 331 331 332 332 331 328 327 326 326 326 327 326 326 326 326 326 327 327 327 330 333 333 333 333 333 332 331 330 328 328
336 335 336 337 336 335 336 337 338 337 336 335 334 333 330 331 330 329 328 329 331 333 334 334 334 335 335 334 333 333 334 333 332 331 331 332 331 328 327 326 326 326 327 327 327 327 326 326 326 327 326 329 333 333 332 333 333 332 331 330 329 328
333 335 337 337 334 336 338 338 337 336 335 334 335 334 331 333 331 329 330 331 332 333 333 333 333 334 334 334 333 334 335 335 335 333 332 332 331 330 328 327 327 327 327 327 326 326 325 325 326 326 325 328 333 333 332 333 332 332 331 330 330 329
333 335 337 336 334 337 340 338 337 336 335 334 335 334 332 334 333 331 331 331 332 332 332 332 333 334 335 334 334 335 335 335 335 334 333 333 332 332 330 328 327 327 327 327 327 325 324 325 326 326 325 327 331 332 332 332 332 332 331 331 330 329
335 335 335 335 336 337 339 337 336 335 334 334 335 333 332 333 332 331 331 331 331 331 331 331 332 334 335 335 334 335 336 335 334 334 334 333 333 333 331 330 328 327 327 327 326 325 324 326 327 326 326 327 329 331 332 332 332 331 331 331 330 328
336 336 334 335 337 337 337 336 334 334 334 334 334 333 332 333 332 332 332 331 330 330 331 330 331 332 334 334 334 335 335 334 334 334 334 332 332 332 331 329 327 327 327 326 326 326 325 326 328 327 327 328 328 329 331 332 332 331 331 331 330 328
336 335 335 335 336 337 336 334 333 333 333 332 333 332 332 332 332 332 332 331 331 330 330 331 331 331 333 333 333 334 334 334 334 334 333 332 331 332 330 328 327 327 327 326 326 326 326 327 328 328 328 328 328 329 329 331 332 332 331 331 330 328
335 333 333 332 333 334 333 331 332 332 332 331 331 332 332 332 332 332 331 331 331 331 331 331 331 331 333 334 333 334 334 333 333 333 333 331 331 331 330 329 328 328 329 328 326 326 327 328 328 328 328 328 329 328 328 330 332 332 331 330 330 328
334 333 331 329 330 330 329 329 330 330 330 330 330 331 331 332 332 332 331 331 332 332 331 331 331 332 333 333 334 334 334 333 332 332 332 332 330 331 331 330 330 330 331 330 328 328 329 328 329 328 328 328 328 329 327 329 331 332 332 331 330 328
334 332 330 328 328 328 328 328 328 328 328 329 330 331 332 332 332 332 332 333 333 333 333 332 332 332 333 333 334 335 334 333 332 331 332 332 331 331 331 331 331 331 330 330 329 329 329 328 328 328 328 328 328 328 327 327 330 331 332 331 329 328
334 331 329 328 327 328 328 328 328 328 330 330 330 332 332 333 332 332 333 334 334 334 334 333 333 334 333 334 334 334 334 333 332 331 331 331 331 331 331 331 330 330 329 329 330 329 329 327 326 327 328 328 328 327 327 327 329 331 332 331 330 328
333 332 330 330 330 331 331 332 332 332 331 332 331 332 332 333 333 333 334 335 335 335 334 334 334 335 334 333 334 334 334 333 332 332 331 331 331 331 331 331 330 330 329 328 330 329 328 326 325 326 328 328 328 327 327 327 329 330 331 331 330 328
336 335 335 335 335 335 337 337 337 336 335 334 333 333 334 335 335 335 335 335 335 335 334 334 334 334 334 333 334 334 334 333 333 332 332 332 331 331 331 331 331 330 329 328 329 330 329 326 324 325 327 327 328 328 327 327 327 329 330 331 330 329
339 339 338 339 338 338 340 340 339 339 338 337 336 336 337 337 337 336 335 335 335 334 334 334 334 334 334 334 333 333 333 333 332 332 332 332 331 331 331 331 331 330 328 329 329 329 328 326 324 325 326 326 327 327 327 327 326 326 328 330 331 329
340 341 340 339 339 339 339 339 339 339 338 338 337 338 337 337 337 336 336 335 335 334 334 334 333 334 333 333 333 332 333 332 331 332 332 332 331 331 331 330 330 330 329 329 329 328 328 326 325 325 326 326 326 327 327 326 326 326 326 328 330 330
341 341 341 341 340 340 338 337 337 337 337 337 337 337 335 335 335 335 335 335 334 334 334 333 333 333 333 332 332 332 332 331 330 331 330 331 331 331 331 330 330 329 329 329 328 328 328 326 325 325 327 327 327 327 327 327 327 326 326 328 329 330
342 342 342 341 340 338 337 335 335 335 335 336 335 334 334 334 334 334 334 334 333 332 332 332 332 333 332 332 332 332 331 330 330 330 330 331 332 331 331 331 330 330 329 329 328 326 325 324 325 326 327 328 327 327 327 327 327 327 327 328 330 330
342 342 341 340 338 336 335 334 335 334 333 332 332 332 332 333 333 332 333 332 332 332 332 332 332 332 332 332 332 332 331 330 331 330 331 331 332 332 331 331 330 329 328 327 326 325 323 323 324 327 328 328 328 328 328 327 327 327 328 329 330 330
342 341 340 338 337 335 334 333 333 332 331 330 330 330 331 331 331 331 331 331 331 331 331 331 331 331 331 331 331 331 331 331 331 331 331 330 331 332 331 330 328 327 327 326 325 325 324 323 324 326 327 328 327 327 328 327 328 328 328 329 329 329
342 340 338 337 336 334 333 332 331 330 329 329 329 330 330 330 330 330 329 328 328 328 329 329 330 330 330 330 331 330 330 330 330 330 330 330 330 331 331 330 327 326 328 326 326 326 326 326 325 326 326 328 328 327 327 327 327 328 328 328 328 328
341 339 335 334 334 333 331 331 330 329 328 328 329 329 329 329 329 328 327 326 327 327 328 329 329 329 329 329 330 330 329 330 330 330 330 330 329 330 330 329 328 328 328 327 326 326 327 328 327 327 327 327 326 326 327 327 327 327 328 328 327 327
340 337 334 334 334 332 329 329 328 328 328 327 327 328 328 328 328 327 325 324 325 326 326 327 328 328 328 328 329 329 329 329 330 330 330 330 330 330 330 329 328 328 329 328 327 327 328 328 328 328 328 327 326 326 326 327 326 326 326 326 327 327
338 336 334 334 333 330 328 327 327 327 327 327 326 327 326 326 326 325 323 322 323 323 324 325 327 327 327 327 328 328 328 329 329 329 329 329 330 330 330 328 328 329 328 328 327 327 328 329 328 328 327 328 328 327 328 327 327 326 325 325 325 326
338 335 332 332 331 329 325 325 326 326 327 327 326 327 326 325 324 323 322 321 321 321 321 323 325 325 325 325 326 326 327 328 328 328 327 328 329 329 329 329 329 329 327 328 328 328 328 328 328 328 327 326 325 326 329 327 325 327 326 325 324 325
337 333 330 331 329 326 324 324 326 327 327 326 325 324 323 323 322 322 321 321 320 319 320 321 322 322 323 323 324 325 326 326 327 328 328 328 329 328 328 328 328 329 328 328 329 328 327 327 328 328 327 327 326 330 332 327 324 327 327 326 325 324
333 330 329 330 327 324 324 324 325 326 326 324 323 322 321 321 321 321 320 320 320 319 320 320 320 321 322 321 323 324 326 327 327 328 328 327 327 327 327 327 327 328 328 327 328 327 327 326 326 326 326 327 328 329 330 326 326 327 327 326 327 327
330 329 328 327 325 324 324 323 322 323 323 322 321 321 321 321 321 320 320 319 319 319 320 320 320 321 322 322 323 324 325 326 327 326 326 325 325 326 326 326 326 326 327 326 326 326 326 325 325 325 326 327 326 327 326 326 327 327 328 326 324 323
327 327 326 325 324 324 323 322 322 322 322 322 321 321 320 320 320 320 320 319 319 319 319 319 319 320 322 323 323 323 324 325 324 324 324 324 324 324 325 326 326 325 326 326 327 327 326 325 324 325 326 326 327 326 325 326 325 325 328 327 322 318
325 324 324 324 324 323 321 320 322 322 322 321 319 319 319 320 320 320 320 319 319 319 319 319 319 319 322 323 322 322 323 324 323 323 323 322 322 323 324 325 326 326 326 326 327 326 326 324 324 325 325 325 325 323 322 323 323 322 325 327 324 321
324 323 322 322 323 322 321 320 322 322 322 320 317 316 318 320 320 320 320 319 319 318 318 319 319 320 321 322 321 321 322 323 323 323 322 321 321 321 322 324 324 324 324 324 323 324 323 323 324 325 325 324 323 321 319 319 320 320 319 320 321 319
324 322 321 321 321 322 321 321 322 322 321 320 316 313 315 319 320 319 319 319 318 317 318 318 318 320 321 319 318 318 319 321 322 322 321 320 319 317 319 322 321 318 318 318 319 320 321 323 324 323 322 320 320 319 318 316 316 316 315 316 320 319
324 322 322 321 321 322 321 322 322 322 321 320 318 313 311 313 316 318 318 318 318 317 317 317 317 317 316 315 314 313 314 317 319 319 318 317 316 316 318 319 317 316 316 316 316 317 317 319 320 318 315 314 315 314 314 313 313 313 313 315 318 317
324 323 322 322 322 322 322 322 322 322 321 320 318 314 310 309 312 316 317 318 318 316 316 316 315 315 314 314 313 310 309 311 313 313 312 312 314 316 318 317 316 316 315 315 315 315 314 314 314 313 312 312 312 312 311 312 312 312 311 311 313 313
322 322 323 322 322 322 322 322 322 322 321 320 318 315 311 310 311 314 316 317 317 315 314 315 315 315 314 315 313 310 308 308 307 307 307 307 309 313 316 317 317 316 314 314 314 313 312 311 311 311 311 310 309 310 310 311 311 310 309 309 309 311
322 323 324 323 324 323 322 321 321 321 320 320 318 314 312 312 312 313 313 315 315 314 314 313 314 315 315 315 313 311 310 308 307 305 305 305 305 307 310 312 314 314 313 313 312 312 311 310 309 309 308 306 306 308 310 310 310 310 309 308 308 309
322 323 323 324 324 323 322 320 320 320 320 319 317 315 314 314 314 315 314 314 314 313 314 313 313 314 314 314 313 312 311 311 310 308 305 304 303 304 305 306 308 310 311 312 311 310 310 307 306 306 306 304 304 307 309 309 309 308 308 308 308 308
320 321 322 323 323 322 321 320 319 319 319 318 317 317 315 314 317 317 314 314 314 313 313 312 312 312 313 314 314 313 313 312 313 312 308 305 304 304 304 303 306 308 310 311 310 310 308 305 303 305 306 305 306 308 309 308 308 308 309 309 309 309

ECMWFFLT2_925_thetae_033.txt.gz
Theta_e
340 335 331 333 337 337 337 336 335 338 338 337 336 335 334 334 333 333 334 334 334 335 335 335 334 334 334 333 332 332 333 332 331 332 333 331 327 326 327 327 326 326 326 326 326 326 326 327 328 330 331 332 332 333 333 333 333 331 332 330 329 330
339 336 333 334 337 337 336 336 337 338 337 336 335 334 334 334 335 335 334 333 333 334 334 335 335 335 335 334 333 333 333 333 332 332 333 331 329 328 327 327 327 327 327 327 326 326 326 326 327 328 331 332 332 333 333 332 333 332 332 331 330 329
338 337 334 335 337 337 336 337 338 338 336 336 336 335 334 335 334 333 332 330 332 333 334 334 334 335 334 334 333 334 334 333 332 333 333 332 330 329 328 328 327 327 327 327 326 326 326 326 326 327 330 332 332 332 333 333 332 332 332 331 330 328
338 334 334 338 338 338 338 338 339 338 337 336 335 334 332 332 331 329 329 330 332 333 334 333 334 335 334 334 334 334 334 333 333 333 334 333 331 330 330 330 328 328 328 327 327 326 326 327 326 326 330 332 332 332 332 332 333 333 332 331 330 329
338 334 336 339 336 338 339 338 338 337 336 334 334 334 331 331 331 330 330 332 333 333 334 334 335 336 335 334 334 334 334 333 333 333 334 334 333 332 332 331 330 328 328 328 327 326 326 328 327 326 329 332 332 332 332 332 332 332 332 331 330 329
336 334 335 335 332 337 338 337 337 336 334 334 335 334 331 333 333 331 331 332 332 332 334 334 334 335 335 334 334 334 334 333 333 333 334 334 333 333 332 332 330 330 328 328 327 326 326 328 329 328 328 330 331 331 331 332 331 331 332 332 331 329
336 333 333 333 333 338 338 336 336 335 335 335 336 334 331 333 332 331 332 331 331 333 335 334 334 334 334 334 333 334 334 333 333 333 334 333 332 333 332 330 329 328 328 328 328 327 327 328 328 329 329 329 330 332 332 331 331 331 331 331 331 330
334 331 332 334 334 337 338 336 336 336 336 336 336 334 332 332 332 332 332 331 331 333 334 333 334 334 334 334 333 334 334 333 333 333 332 332 332 331 331 330 328 328 330 331 330 329 329 329 328 328 329 329 329 330 331 332 331 331 331 330 331 330
330 331 332 332 334 336 336 336 336 336 336 336 335 333 332 332 332 332 332 331 332 333 333 333 334 334 334 334 332 334 334 333 333 332 331 332 332 331 331 331 330 331 332 331 331 330 329 329 328 328 329 329 329 329 330 332 332 331 331 330 331 330
329 333 332 330 333 335 335 336 336 336 335 336 334 331 331 332 332 332 332 332 333 333 332 333 334 333 334 333 333 333 334 333 333 332 332 332 331 330 331 331 332 332 332 331 330 329 328 328 328 328 328 329 329 329 328 330 332 332 331 330 330 330
330 333 333 330 333 335 336 335 335 335 335 335 332 330 332 333 333 333 333 333 334 333 333 334 334 334 334 334 334 333 333 333 333 332 332 332 330 331 331 331 332 332 331 331 330 329 328 327 327 328 327 328 329 327 327 328 330 331 332 331 330 330
327 330 335 333 333 335 335 334 335 334 334 334 331 331 333 333 334 335 335 335 334 333 334 333 333 333 335 334 334 334 333 333 333 332 332 331 332 332 332 331 331 330 330 330 330 329 328 326 327 328 328 328 328 327 327 327 329 330 331 331 330 330
328 332 335 335 334 334 334 333 333 333 334 334 333 333 334 335 335 335 335 335 334 334 334 334 333 334 334 334 333 333 333 333 333 332 332 332 332 332 332 332 331 330 329 329 329 329 329 327 326 326 327 328 327 327 327 327 328 329 330 331 331 330
332 335 335 335 335 334 335 334 334 334 336 336 335 335 335 335 336 335 335 334 333 333 333 333 333 333 333 333 333 333 333 333 333 332 332 332 332 332 332 333 332 332 330 329 330 329 329 329 327 327 326 327 328 327 327 327 327 327 327 329 330 331
336 336 335 336 336 336 336 336 337 337 337 337 336 336 336 336 335 334 334 333 332 332 332 332 331 331 332 333 333 333 333 332 332 331 332 332 332 332 332 332 332 332 330 328 329 329 329 330 329 328 326 325 327 327 327 327 327 326 326 327 329 330
338 338 338 338 338 338 338 338 338 336 336 336 335 335 335 335 334 333 333 333 333 332 332 332 331 330 331 332 332 333 333 332 332 331 332 331 331 332 332 332 332 331 330 329 328 329 329 330 329 328 326 325 326 326 326 326 326 326 326 326 327 329
340 339 340 340 339 339 339 338 337 335 336 335 334 333 332 333 333 333 333 333 332 332 332 332 331 331 331 332 332 332 332 331 330 330 330 331 331 332 332 331 331 329 330 329 329 329 329 329 329 328 327 327 326 326 327 326 326 326 326 326 327 329
340 340 340 339 339 338 338 338 336 335 335 333 333 333 332 333 333 333 333 332 331 331 331 331 330 330 331 332 332 332 331 330 330 329 330 331 332 332 331 331 331 329 329 328 328 327 326 327 329 329 328 328 327 327 327 327 327 327 327 327 327 328
341 341 340 338 337 338 338 337 336 335 333 332 331 332 332 332 332 331 331 329 329 330 330 330 330 330 330 331 331 331 331 330 329 330 331 331 332 331 331 331 330 329 328 328 327 327 325 324 326 329 328 328 327 327 328 327 328 327 327 328 329 329
341 342 340 338 337 337 336 335 334 333 332 331 331 331 331 330 330 329 327 327 327 328 329 329 330 330 330 330 330 330 330 330 329 330 330 331 331 331 330 330 328 327 327 326 325 325 325 324 325 327 327 328 328 327 327 327 328 328 328 328 328 329
341 341 339 338 337 336 335 333 332 331 330 330 330 330 329 328 327 326 326 326 326 327 328 329 329 329 329 329 329 329 329 329 329 329 329 330 329 330 330 329 327 326 327 325 324 326 326 325 326 327 328 328 328 328 328 327 328 328 328 328 329 329
341 340 339 338 336 335 334 332 330 328 328 328 328 328 327 327 326 325 325 325 325 326 327 327 327 327 328 328 328 329 329 329 329 329 329 329 329 329 329 329 328 327 327 326 326 327 327 327 329 329 329 330 328 328 329 328 328 327 327 327 328 328
340 340 339 337 334 334 333 329 327 327 326 326 327 327 327 326 324 323 323 323 323 324 325 326 326 326 326 326 327 327 328 328 328 328 329 329 329 329 329 329 328 328 329 328 328 328 328 328 330 330 330 330 329 328 329 329 329 328 327 326 326 327
340 340 339 337 335 334 332 328 327 327 326 326 326 326 326 325 323 321 321 321 321 321 323 325 325 324 324 324 325 325 326 328 328 328 328 329 330 329 328 328 328 328 329 329 328 328 328 328 329 330 329 329 328 328 329 330 330 329 328 328 327 326
339 340 339 337 335 333 330 328 327 327 326 326 326 326 324 324 322 322 322 320 319 320 321 322 322 323 322 322 323 324 325 326 327 328 328 329 329 328 328 327 328 328 328 329 329 328 328 327 327 327 328 329 328 328 329 329 330 329 327 327 328 327
337 338 338 335 333 332 329 327 327 326 325 325 325 324 323 322 322 321 320 319 319 319 320 320 320 321 321 321 322 323 325 326 327 328 327 328 328 328 327 327 327 327 327 328 328 328 327 327 326 326 326 328 328 328 329 329 329 330 327 324 324 325
336 337 336 333 333 331 328 326 325 323 322 323 323 322 321 321 320 320 319 319 319 319 320 320 320 320 320 321 323 323 324 326 326 326 326 326 326 327 327 326 326 327 327 327 327 328 328 327 327 327 326 326 326 327 328 329 329 330 328 323 319 319
335 336 334 332 331 330 326 325 324 321 321 321 321 321 320 320 320 319 319 319 319 319 319 319 319 321 322 322 322 322 324 324 324 323 324 324 324 324 325 326 326 326 327 326 326 327 328 327 327 327 326 326 326 325 326 327 328 328 328 323 319 318
332 332 331 330 330 327 325 324 322 320 321 321 320 320 320 320 319 319 319 319 319 319 319 318 318 321 322 322 321 322 323 323 323 323 322 322 322 322 324 326 326 327 327 326 327 327 327 326 326 326 326 326 325 323 323 323 325 327 327 323 320 320
328 328 328 329 328 325 324 323 321 320 321 320 320 319 319 320 319 319 319 319 319 319 318 318 319 321 322 321 320 321 322 323 323 322 322 321 320 320 322 323 324 325 325 325 325 325 326 326 325 325 325 326 324 323 323 323 323 324 324 323 319 319
324 325 327 327 325 324 324 322 321 321 320 320 319 318 318 320 320 319 319 318 318 318 318 318 320 321 321 319 318 318 320 322 322 322 321 318 317 318 320 319 319 320 320 321 321 323 325 324 324 324 324 325 324 324 324 323 321 321 320 320 319 318
323 324 325 325 324 324 323 322 321 321 321 320 319 316 316 318 319 319 318 318 317 317 318 319 319 319 317 315 314 314 317 319 320 320 318 316 316 318 319 316 317 317 316 317 318 320 321 319 318 320 320 321 320 320 319 318 318 320 320 320 319 318
322 322 323 323 323 323 323 322 322 322 321 320 319 316 314 316 318 318 318 317 316 316 317 317 316 315 314 313 312 312 315 317 317 317 315 315 316 318 317 316 316 316 315 315 315 316 316 315 314 315 315 315 315 315 314 313 314 318 320 320 319 318
322 321 321 321 321 322 322 322 322 322 321 320 318 315 312 313 315 316 317 317 315 315 315 315 315 314 314 314 311 310 312 313 313 313 313 315 317 316 315 316 315 314 314 314 313 313 312 312 312 312 312 311 311 311 311 311 312 314 317 318 319 318
324 323 323 322 321 321 321 322 322 322 321 320 318 315 312 311 312 315 317 316 314 313 313 314 315 315 315 314 311 310 311 311 309 309 309 311 314 315 315 315 314 313 313 312 311 311 310 309 309 308 308 309 310 310 309 310 310 311 312 314 317 317
324 324 324 323 321 321 322 322 322 322 321 320 319 316 313 311 311 314 316 315 313 311 311 312 313 314 314 314 312 311 311 311 309 307 305 305 309 313 315 314 313 312 312 311 310 309 308 308 306 306 306 307 310 310 309 309 309 309 309 310 313 315
323 323 324 324 322 322 323 323 323 322 321 320 319 317 313 311 311 313 314 313 312 310 309 309 310 312 313 314 313 312 311 311 311 310 307 305 305 308 311 313 313 312 311 310 309 307 307 307 306 306 307 307 309 308 308 308 309 308 308 308 310 312

ECMWFFLT2_925_thetae_036.txt.gz
Theta_e
341 341 342 341 341 339 337 337 339 339 339 338 338 337 336 335 334 333 333 333 335 337 337 336 336 337 336 334 333 332 332 333 334 334 331 327 326 327 327 326 326 326 325 325 326 327 326 327 329 331 332 332 332 334 336 337 336 335 335 333 334 331
340 341 341 341 340 338 338 339 339 339 338 337 337 336 336 335 335 335 335 336 339 339 338 338 338 339 338 336 334 333 334 334 334 335 332 327 327 327 327 326 326 326 326 325 327 328 329 328 330 331 331 332 332 335 337 336 336 335 334 334 334 329
341 341 340 341 342 340 340 339 339 338 337 337 336 337 337 337 339 338 338 339 341 339 338 339 338 338 338 336 334 334 334 334 334 334 332 329 328 328 327 326 327 326 326 326 328 330 330 329 330 330 332 333 334 336 336 336 335 334 334 334 333 328
341 339 339 341 340 339 337 337 338 339 338 338 337 338 340 339 340 338 338 339 340 339 340 338 336 337 337 336 335 334 334 334 334 334 332 331 330 328 327 327 327 326 328 330 331 330 330 330 330 331 333 334 335 336 336 336 335 335 333 334 333 328
339 338 338 337 336 336 335 335 338 338 338 339 337 338 339 336 337 335 334 337 338 338 338 336 334 336 338 337 336 335 334 334 334 334 333 334 334 331 331 332 329 329 332 332 331 330 330 330 330 330 332 333 334 335 335 334 334 334 334 334 333 328
337 338 338 335 335 336 337 337 337 337 337 338 335 335 337 335 336 335 334 336 336 337 337 336 335 336 338 337 337 337 336 336 336 335 334 335 336 335 335 336 333 332 332 331 331 331 330 330 330 330 330 331 332 333 334 334 334 334 334 335 332 329
337 337 337 335 336 339 339 338 338 337 336 336 337 337 338 338 337 336 336 336 336 337 338 338 337 337 337 337 336 336 336 336 336 336 336 336 336 335 335 336 334 333 331 331 331 331 330 330 330 329 329 330 331 332 333 333 333 333 333 334 332 329
338 338 338 335 336 338 339 338 337 337 336 337 339 338 339 339 337 337 337 335 336 338 338 337 337 337 336 336 336 336 336 336 336 336 336 336 336 336 336 335 333 332 331 331 330 330 330 330 330 329 329 330 330 331 332 333 334 333 334 334 333 330
336 337 338 336 336 337 338 338 338 338 337 338 338 339 339 337 337 338 338 337 337 338 336 336 336 335 336 337 336 336 336 336 336 336 336 336 337 337 336 334 333 332 332 332 331 330 330 330 329 329 328 329 330 330 331 333 334 334 333 334 335 331
333 336 338 336 336 337 338 338 338 338 338 338 338 338 338 338 338 338 338 338 338 336 336 336 335 335 335 335 335 335 335 335 336 336 335 336 336 336 335 334 334 333 333 332 332 330 329 329 329 328 327 328 329 329 330 332 333 333 333 334 336 333
333 335 335 335 334 334 336 337 338 338 338 338 338 337 337 338 338 337 338 338 337 336 336 335 334 334 334 334 334 333 334 334 335 336 335 335 335 336 335 334 334 334 334 333 332 330 329 329 328 328 327 327 328 329 329 330 331 332 332 333 335 335
334 333 333 335 333 332 335 337 338 337 337 338 337 337 337 338 337 337 337 336 336 336 336 335 333 334 333 333 334 333 333 334 335 335 335 334 333 335 335 334 335 335 334 333 332 331 329 329 328 328 327 327 327 328 328 328 330 330 331 333 334 336
334 332 333 336 334 334 336 337 338 337 337 337 336 336 337 337 336 336 335 335 335 335 334 334 333 333 333 333 334 333 333 333 334 334 335 334 333 334 334 334 335 334 334 333 333 331 330 330 329 328 328 327 327 328 327 328 328 330 331 332 333 334
334 333 335 335 335 336 337 336 337 337 337 337 336 336 336 337 335 334 335 334 334 334 334 334 333 333 333 333 333 334 333 334 334 334 334 334 334 334 333 334 334 333 334 333 333 331 331 331 330 329 329 328 328 327 328 328 328 330 331 332 333 334
333 334 334 334 336 337 337 337 338 338 338 337 337 336 336 336 335 334 335 335 334 334 334 334 333 333 333 332 333 333 333 333 333 333 334 334 334 334 333 334 334 333 333 334 334 332 331 332 331 330 329 330 329 328 328 328 329 329 330 332 332 334
333 332 333 334 337 337 338 339 338 338 337 337 336 336 335 335 334 334 334 335 334 334 334 333 333 332 332 332 332 333 333 333 333 333 334 334 334 333 333 333 334 333 333 333 333 332 332 332 332 331 331 330 330 329 329 329 330 329 330 330 331 333
335 334 333 335 338 338 339 339 338 337 336 336 335 334 334 333 334 333 333 333 334 334 333 333 333 333 333 332 333 333 333 333 333 333 333 334 332 332 333 333 333 334 334 333 332 332 332 332 332 331 331 331 330 330 331 331 331 331 331 331 331 332
336 336 336 337 339 339 338 337 336 335 335 334 333 333 333 333 333 332 332 332 332 332 332 332 332 332 333 333 333 333 333 333 332 333 333 333 332 332 332 332 333 335 335 334 333 332 332 332 332 332 332 331 331 331 331 331 331 331 332 332 331 330
335 336 338 339 339 338 337 336 334 334 333 333 332 333 332 331 331 331 331 330 331 331 330 331 331 332 333 333 332 332 333 332 332 333 333 333 332 332 332 333 334 334 334 334 333 333 333 332 332 332 332 332 331 331 331 331 331 332 332 333 331 330
334 336 338 339 338 337 336 335 334 333 332 332 331 331 331 330 330 330 330 329 329 329 330 330 330 331 332 332 332 332 332 332 332 333 333 333 332 332 332 333 334 334 333 332 331 331 332 332 332 332 332 331 331 331 331 331 331 332 331 332 332 332
337 339 339 338 337 336 335 334 333 333 331 330 330 330 330 330 329 330 330 329 329 329 329 329 329 330 331 331 331 331 331 331 332 332 332 332 331 331 332 333 333 333 333 331 330 330 330 330 331 331 331 331 332 331 331 331 331 331 331 332 333 333
341 340 338 338 337 336 334 333 333 332 331 330 329 329 329 330 329 329 329 329 329 329 329 329 329 329 329 330 330 331 331 331 331 331 331 331 331 331 332 332 333 332 332 331 331 331 330 330 330 331 332 331 331 331 331 332 331 330 330 330 331 332
340 340 338 338 337 336 335 334 333 332 331 330 330 330 328 328 328 327 327 328 328 329 328 328 328 328 328 328 328 329 329 329 331 331 331 331 331 331 331 332 332 331 331 331 331 331 331 331 330 330 332 331 330 331 330 331 332 331 331 331 330 330
339 339 338 337 336 336 334 333 333 332 331 330 330 329 328 327 326 324 325 325 326 327 328 327 327 327 327 327 327 327 328 328 329 330 331 331 330 330 331 331 331 331 331 331 331 331 331 331 331 330 330 329 329 330 329 329 329 329 330 331 330 330
340 340 338 337 336 336 333 331 331 331 330 330 329 328 326 325 325 324 323 323 324 325 326 326 326 326 325 326 327 326 326 327 328 329 330 330 330 330 330 331 331 331 331 331 330 330 330 331 331 331 330 329 329 329 329 328 328 328 329 329 329 329
340 341 338 336 335 335 333 331 331 330 330 329 328 327 326 325 325 323 321 321 322 324 325 325 326 326 325 326 326 326 326 327 327 328 328 329 329 329 330 330 330 331 331 331 330 330 330 330 330 330 330 330 331 330 330 329 329 327 327 328 328 328
339 340 339 336 335 334 332 331 331 330 329 329 328 328 326 325 324 322 322 322 322 324 324 324 325 325 325 325 326 326 326 327 327 327 327 326 327 327 327 327 328 330 330 330 330 330 330 330 330 329 330 330 330 331 330 330 329 327 327 327 326 326
338 339 339 336 335 334 332 331 332 330 328 327 327 327 326 325 323 322 322 322 322 322 323 324 324 325 325 325 325 325 326 327 326 326 325 325 325 325 325 326 326 327 328 329 330 330 330 330 330 329 329 329 329 329 330 331 330 329 328 328 326 325
337 338 338 337 335 335 332 332 332 329 328 327 326 326 324 323 323 323 322 322 321 321 322 324 325 325 324 324 323 324 325 325 325 324 324 324 324 324 325 326 327 328 328 330 330 330 330 330 330 330 329 329 329 329 329 330 330 329 329 328 326 326
332 332 334 335 335 335 333 331 331 330 329 328 327 325 323 323 323 323 322 322 322 321 322 323 324 325 324 322 323 323 323 324 324 323 322 322 322 323 324 325 327 328 328 329 329 329 330 329 329 329 329 329 329 329 329 329 329 329 328 327 326 326
328 328 329 329 332 334 332 330 330 330 329 328 327 325 323 323 323 323 322 322 321 321 322 323 323 323 323 322 321 322 323 322 323 322 321 321 321 322 323 324 324 324 325 327 327 328 328 328 328 329 329 329 328 329 328 328 328 328 327 326 325 324
328 329 329 327 327 330 331 330 329 330 329 328 326 325 324 324 322 322 322 321 320 321 322 323 322 322 321 321 320 321 322 321 321 320 320 321 322 321 321 321 321 321 322 323 324 325 326 326 327 327 328 327 326 327 326 326 327 326 325 324 324 322
326 326 327 325 326 328 330 329 329 330 329 328 326 324 323 323 321 320 320 320 320 320 321 321 321 320 320 319 319 320 320 319 319 319 320 321 321 321 320 319 318 319 319 320 321 321 322 323 323 324 324 323 323 322 322 322 323 325 325 324 323 323
324 324 325 324 324 327 328 327 328 330 329 327 327 324 322 321 321 319 319 319 319 319 320 320 320 320 319 317 317 318 317 316 316 317 318 320 319 320 320 318 317 318 318 319 319 318 319 320 320 320 320 318 318 317 317 317 318 320 322 322 322 322
324 324 324 323 324 325 326 325 328 330 329 327 326 324 321 321 320 319 318 318 318 318 319 319 319 320 319 317 316 315 315 314 314 314 315 317 318 318 318 317 316 317 317 317 317 316 316 317 317 318 317 316 314 314 314 314 314 315 317 319 320 320
324 323 324 323 324 325 325 324 325 328 329 327 325 323 321 320 320 319 318 317 317 317 318 319 319 319 318 317 316 315 314 314 313 313 314 315 316 316 317 316 315 316 315 315 315 315 315 315 315 316 316 315 313 313 314 313 313 313 314 316 318 318
325 323 323 324 325 326 326 323 322 325 327 326 325 323 320 321 322 320 319 318 317 317 317 318 318 319 318 317 316 316 316 316 315 314 314 314 314 315 316 315 315 315 314 313 313 314 314 314 315 314 315 315 313 313 314 314 314 314 314 315 316 317

ECMWFFLT2_925_thetae_042.txt.gz
Theta_e
336 334 334 335 336 334 331 333 337 339 339 338 338 335 335 337 338 338 337 337 335 336 335 334 334 334 333 334 335 336 335 335 335 335 332 326 324 324 324 323 322 322 323 327 331 332 332 331 330 331 332 332 331 333 335 336 334 333 334 334 333 330
337 335 334 335 334 334 335 337 339 339 338 337 336 335 335 338 337 337 336 335 335 336 335 334 335 334 333 334 335 335 335 335 335 334 331 326 325 325 324 323 323 322 323 326 328 329 330 329 329 331 332 332 331 332 336 336 333 333 334 334 332 329
338 336 337 337 335 337 338 338 339 338 337 337 337 336 336 337 336 336 335 335 335 336 335 335 336 335 334 335 335 334 334 335 335 334 331 326 325 326 325 324 323 323 323 325 327 328 329 329 328 328 330 332 330 333 337 335 332 333 333 333 331 329
339 337 338 338 338 338 339 339 338 336 337 338 338 337 336 336 336 337 335 334 335 336 336 336 337 337 336 335 334 333 334 335 334 335 331 326 326 326 325 324 323 324 325 328 329 331 332 333 330 328 328 331 331 334 337 334 333 334 334 334 331 328
339 338 338 338 338 338 339 338 337 336 337 338 338 337 337 337 337 336 335 335 335 335 336 337 336 337 337 335 335 334 334 334 335 335 332 329 329 328 328 328 328 326 328 331 332 333 333 333 333 330 329 332 334 335 336 334 333 334 334 334 331 328
338 338 338 338 337 338 339 339 336 336 338 338 337 337 337 337 335 334 335 336 334 335 337 336 335 335 336 335 336 336 336 336 336 335 333 333 334 333 332 333 333 330 330 332 333 333 332 331 332 332 332 333 334 335 335 334 333 334 333 333 331 328
337 338 338 338 338 338 339 339 336 336 337 337 338 337 337 336 335 335 335 335 334 335 336 335 334 335 336 336 336 336 336 336 336 335 335 334 335 335 334 333 334 332 331 332 332 332 330 330 331 330 331 332 333 335 334 333 334 334 333 333 331 329
339 338 338 339 339 338 339 340 338 337 337 336 338 338 336 336 336 335 334 333 333 333 334 335 335 335 335 336 336 334 335 335 335 335 335 334 335 336 334 333 334 333 332 332 331 330 330 329 330 330 330 330 331 333 333 333 333 335 334 333 330 328
339 338 337 337 339 339 339 339 337 338 338 337 338 337 336 335 334 333 332 333 333 333 333 335 336 335 335 336 335 333 333 334 334 334 334 334 335 335 334 334 334 334 333 331 330 330 329 329 329 330 330 330 330 330 332 332 332 334 335 334 330 328
338 337 337 337 339 339 338 336 337 339 339 337 336 336 335 335 335 333 332 333 333 332 333 334 334 335 336 336 334 333 333 334 333 333 333 333 333 334 335 335 334 333 333 332 330 330 329 328 330 331 330 329 329 329 331 332 331 333 335 335 332 329
337 337 337 338 338 337 337 338 338 338 337 335 334 335 335 335 335 334 333 333 333 332 331 334 334 334 335 334 333 333 334 334 334 333 333 333 333 334 333 333 333 333 333 331 330 330 330 329 329 330 330 329 329 329 330 331 331 332 335 336 333 330
337 338 337 337 337 337 339 339 337 335 334 334 335 335 335 335 334 334 334 334 333 332 331 334 335 334 333 333 332 332 332 332 332 333 333 333 332 333 332 333 333 332 332 332 331 331 330 330 330 330 329 328 328 329 329 330 330 331 333 335 334 331
336 338 337 336 335 337 339 336 333 334 333 333 334 335 334 335 334 334 334 334 333 332 332 334 335 334 333 332 333 333 332 332 332 332 333 333 333 333 332 332 333 333 332 332 332 332 331 330 330 329 328 328 328 328 329 328 329 330 333 335 335 333
336 336 336 336 334 336 337 334 333 334 334 334 335 335 336 335 336 335 334 334 334 331 331 333 335 334 334 334 334 335 334 333 333 333 333 333 333 333 331 331 332 333 332 332 332 332 331 330 329 329 328 328 328 328 328 328 329 330 331 334 336 335
336 336 336 335 335 337 336 335 336 335 335 337 338 337 338 337 336 335 335 335 335 334 333 334 335 334 334 335 334 335 335 334 334 333 333 332 331 332 331 331 333 333 332 332 332 332 331 330 329 329 328 328 328 328 328 328 329 330 331 332 334 335
335 335 334 334 335 336 335 334 336 336 336 338 338 337 338 338 337 336 336 336 336 336 336 335 335 333 333 335 334 334 335 334 334 334 332 331 331 332 332 332 332 332 332 331 333 332 330 330 329 329 329 329 329 329 329 329 329 330 330 331 334 335
334 334 333 334 335 336 335 335 336 336 337 339 338 336 337 337 336 336 335 336 336 335 335 336 334 333 333 334 334 334 334 334 334 334 332 331 331 332 333 333 332 332 332 332 333 332 330 329 329 328 330 330 330 329 329 329 329 329 329 330 332 333
334 332 333 335 337 337 337 336 337 337 338 337 335 335 335 334 333 333 334 335 335 335 335 336 334 332 333 333 334 333 333 334 334 333 331 332 332 333 332 333 333 332 332 331 331 331 330 330 329 329 330 330 330 330 330 330 330 329 329 329 329 331
335 332 333 335 336 336 338 336 336 336 335 334 333 332 333 332 332 332 332 333 333 333 334 334 333 333 333 333 333 333 332 333 333 332 331 332 333 334 333 332 333 333 332 330 330 331 331 330 329 329 330 330 330 330 329 330 330 330 330 329 329 331
336 336 336 336 334 335 337 336 336 334 333 332 331 331 331 330 331 331 331 331 331 332 332 333 333 333 334 333 334 333 332 332 332 332 331 331 333 334 334 333 332 332 332 330 330 330 330 330 329 329 330 330 331 330 329 330 330 331 330 330 330 330
336 338 338 337 337 336 336 335 333 331 331 330 331 331 331 330 331 330 329 329 330 331 331 331 332 332 333 333 333 333 332 332 331 332 332 332 332 333 333 333 332 331 331 331 330 329 330 330 329 330 331 331 330 330 331 330 329 330 330 330 330 330
336 337 338 338 338 336 334 333 331 330 329 329 329 330 330 330 329 329 329 330 330 330 330 330 331 331 331 331 332 332 332 332 331 331 332 332 331 332 332 333 333 332 331 331 330 329 330 330 329 330 332 333 332 331 331 330 329 330 329 329 329 329
337 336 337 337 336 334 332 332 331 330 328 328 328 329 329 327 327 328 330 330 330 329 329 328 329 329 329 330 330 330 331 332 331 331 332 332 331 332 332 332 332 332 331 330 330 330 332 332 331 331 332 333 333 333 332 332 330 329 329 330 330 329
335 335 335 334 333 332 331 331 331 331 330 329 328 328 327 326 327 328 329 329 330 329 328 327 327 327 327 328 329 329 330 331 332 331 331 332 332 332 331 330 331 332 331 330 331 331 332 332 331 331 332 332 332 332 333 333 332 330 330 330 329 328
334 334 334 333 332 331 331 332 332 331 329 328 327 326 325 325 325 325 326 327 329 329 327 326 326 325 324 326 328 328 329 329 330 331 332 331 331 331 331 330 331 331 330 330 331 330 331 331 330 330 331 331 332 333 333 332 332 331 329 328 328 327
332 331 331 332 331 330 332 332 332 330 327 325 324 324 325 324 323 322 324 325 326 327 327 327 326 326 326 326 327 328 328 328 328 329 330 330 330 330 330 330 329 329 330 330 330 329 330 331 331 330 329 330 331 332 332 332 332 332 329 327 327 327
330 329 329 329 327 329 331 331 331 328 325 324 325 325 325 324 323 323 324 325 325 326 327 327 326 326 327 328 327 327 327 327 327 326 326 327 327 327 327 329 329 329 330 330 329 329 330 330 330 330 329 329 330 330 331 331 332 331 331 329 328 326
329 328 327 325 323 325 327 327 329 327 326 327 326 327 326 324 323 323 323 324 325 326 326 326 326 326 327 327 326 327 326 326 326 325 325 325 326 327 327 328 329 329 329 329 329 328 329 329 329 329 329 329 330 330 330 330 330 329 330 329 328 326
327 327 324 322 321 321 321 324 328 329 328 328 327 326 325 323 323 323 323 324 325 326 326 325 325 324 325 325 325 325 326 325 324 324 325 325 326 327 328 328 329 330 329 329 329 328 328 328 329 329 329 328 329 329 329 328 328 328 328 328 328 327
326 326 323 322 321 321 323 326 329 330 328 326 325 324 323 323 324 325 325 324 325 326 325 325 325 325 324 324 325 325 325 324 323 323 324 325 326 326 327 327 328 329 329 328 329 329 329 328 328 328 328 328 328 328 327 327 327 328 328 328 328 327
324 325 323 322 323 325 327 329 330 329 326 324 323 323 323 324 324 325 325 324 324 325 326 325 324 324 324 324 324 324 323 322 323 323 324 324 324 324 325 326 326 326 327 327 327 328 328 328 328 327 327 328 327 327 327 327 328 327 328 329 328 328
323 326 326 323 324 328 329 330 330 327 324 323 323 323 323 324 324 324 324 325 326 326 325 324 322 322 323 323 323 322 322 323 323 323 322 321 321 321 322 323 323 324 324 325 325 325 325 325 325 325 325 325 325 326 326 327 327 325 325 327 327 327
324 328 328 325 327 329 329 330 330 327 324 324 324 324 324 324 324 324 324 325 326 326 324 323 322 322 323 323 321 320 321 322 323 322 322 321 319 319 320 321 321 321 321 322 322 322 322 320 320 319 320 320 321 322 323 324 325 325 324 325 325 324
326 327 325 326 329 329 329 328 329 328 326 325 324 324 324 324 324 324 324 324 325 325 323 321 321 321 321 321 320 319 320 321 321 321 321 320 318 318 319 319 319 319 318 318 319 319 319 318 317 316 316 316 316 317 318 319 321 323 323 324 323 322
328 329 328 329 330 329 328 328 328 328 327 325 324 324 324 325 324 323 323 323 324 324 322 320 319 319 319 318 317 318 318 319 319 319 319 319 318 317 317 317 317 316 316 316 317 317 317 317 316 316 315 315 315 316 316 316 317 320 321 321 321 320
331 332 331 332 331 329 329 328 328 328 327 326 325 324 324 324 323 322 323 323 324 324 322 320 318 318 317 316 316 316 316 317 318 318 318 318 317 317 316 316 315 316 316 316 316 316 316 317 317 316 316 316 316 316 316 315 316 317 317 318 319 318
332 332 331 331 331 330 330 329 329 328 327 326 324 323 323 322 322 322 322 323 323 323 321 319 318 317 316 315 315 316 316 316 316 317 317 317 317 316 315 315 314 315 316 316 316 316 317 317 317 317 317 316 316 316 316 315 315 315 314 315 316 316

ECMWFFLT2_925_thetae_045.txt.gz
Theta_e
343 342 341 341 340 340 339 336 334 331 330 333 335 335 335 336 338 339 338 337 337 337 336 335 335 335 334 334 335 336 335 335 335 335 330 325 323 322 322 323 322 323 324 327 330 332 332 331 330 331 332 334 334 335 335 336 335 334 333 332 330 328
340 340 339 339 338 338 336 335 334 334 335 335 335 335 335 337 338 338 337 336 336 336 335 334 334 333 333 333 334 335 335 335 336 334 330 325 323 323 322 323 323 323 323 325 329 331 331 330 330 330 330 331 332 333 335 336 335 333 333 332 331 329
338 337 337 336 336 335 335 335 335 337 338 337 335 334 336 338 337 336 336 335 335 335 333 333 334 334 334 334 334 335 334 334 335 334 331 326 323 323 322 322 323 324 325 326 327 329 330 330 329 329 329 329 330 332 335 336 334 333 333 331 330 328
337 335 334 334 332 333 336 336 336 338 339 337 335 335 336 337 335 335 335 334 334 334 333 334 336 336 336 335 334 334 332 333 334 334 332 327 324 324 323 323 323 325 327 328 329 330 331 332 332 330 328 328 329 332 336 336 334 333 332 332 330 327
335 333 330 331 332 334 337 337 337 338 337 336 335 335 337 336 334 334 334 334 334 334 334 335 337 338 337 335 334 333 332 334 333 333 332 329 328 327 326 325 326 327 328 330 332 332 333 333 333 332 329 328 330 333 335 335 334 333 332 332 330 327
335 334 331 331 334 336 337 337 337 338 336 334 335 335 336 335 334 334 333 333 334 334 335 335 336 336 336 335 334 334 334 334 333 334 333 331 332 332 330 329 329 330 329 330 332 332 333 331 331 332 330 329 331 333 335 335 334 334 332 332 329 327
336 337 335 334 335 337 337 337 336 336 335 335 336 336 335 334 334 333 332 333 335 335 335 335 334 334 335 335 334 335 335 335 335 335 334 332 334 334 333 333 332 332 331 331 331 331 331 330 329 330 330 329 330 333 334 334 334 333 333 331 329 328
338 338 338 337 336 337 337 337 336 335 335 335 336 336 335 334 333 333 333 334 335 335 335 334 333 333 334 334 334 334 335 335 335 335 335 334 334 334 334 334 333 333 333 332 332 331 330 329 328 328 329 329 330 331 332 333 334 333 333 331 328 327
338 338 338 337 336 337 337 337 337 336 335 335 335 335 335 334 332 333 334 335 335 334 335 334 334 333 334 334 334 335 335 335 335 335 335 334 334 335 335 334 333 334 333 333 332 330 329 328 328 329 329 329 328 329 331 332 333 332 332 331 328 327
337 337 338 337 337 338 338 337 337 336 335 335 335 335 336 336 334 334 334 334 334 333 334 334 334 334 334 334 334 335 334 334 334 334 334 334 334 334 334 334 334 333 333 332 331 330 329 329 329 330 330 329 328 328 330 331 331 331 330 329 328 326
337 337 338 338 337 338 337 337 337 336 335 335 336 336 335 335 334 334 334 333 333 332 333 334 334 333 333 333 334 334 333 333 333 333 333 333 334 333 333 333 333 333 332 332 331 331 330 329 330 329 329 329 328 328 329 330 330 331 330 328 327 326
338 338 339 339 338 337 336 337 337 337 336 335 335 335 334 333 333 333 333 334 333 333 333 333 333 333 333 333 333 333 333 333 333 333 333 333 333 333 333 333 332 332 332 332 331 332 331 330 329 329 329 329 328 327 328 328 329 332 331 328 327 326
338 338 339 340 338 336 335 335 335 337 336 334 334 334 333 332 332 333 333 334 333 333 332 333 333 333 333 334 333 333 332 333 333 333 333 332 332 332 332 332 332 332 332 331 331 332 331 330 329 329 329 328 327 327 327 328 328 331 332 327 326 326
338 338 339 339 338 337 336 334 334 336 335 333 333 333 334 333 333 334 333 333 334 333 332 332 333 333 333 333 333 333 333 333 333 333 333 332 332 332 332 331 332 332 332 332 331 331 331 330 329 328 328 328 328 327 326 327 327 330 332 329 328 327
338 338 339 338 338 338 337 336 335 335 334 334 335 335 334 335 334 334 334 334 333 333 333 332 333 333 332 333 333 333 334 334 334 333 333 333 332 332 331 331 331 332 331 331 332 331 330 330 329 328 328 327 328 327 326 326 328 332 333 332 331 328
338 337 338 337 338 336 334 335 334 334 336 336 337 336 336 336 336 335 334 334 333 333 333 332 333 333 333 332 333 333 334 334 334 334 333 332 332 331 331 331 332 331 330 331 332 331 330 329 329 329 329 328 328 328 327 327 328 330 331 331 333 331
338 337 336 337 336 334 334 334 334 335 337 338 337 337 336 337 336 335 335 334 333 333 332 332 333 333 334 334 334 334 333 333 333 333 333 331 331 331 332 332 331 330 330 331 332 330 330 329 328 330 330 329 329 329 328 328 328 330 331 332 333 334
336 336 336 336 336 335 335 335 335 337 338 338 337 336 336 335 335 335 335 334 333 332 332 332 333 333 333 334 334 334 333 333 332 333 332 331 331 332 332 332 332 331 330 330 330 330 330 329 328 330 330 330 330 329 329 329 328 329 331 332 333 334
335 335 335 336 335 335 336 335 336 336 337 336 335 335 335 333 333 333 333 333 333 333 333 334 333 332 333 334 333 333 333 332 332 332 331 331 332 333 332 332 333 332 331 329 330 330 330 329 328 330 330 329 329 329 329 329 329 329 329 330 332 332
333 334 336 336 336 336 336 335 334 335 335 335 334 334 334 332 332 331 330 331 332 332 333 333 333 332 333 333 333 333 333 332 332 332 331 330 332 333 333 332 332 332 330 330 330 331 330 329 329 330 330 330 329 329 329 329 329 329 329 329 331 331
333 336 336 336 337 336 335 335 334 334 334 332 332 332 331 331 332 331 330 331 332 331 332 332 332 333 333 333 332 332 332 332 331 331 331 331 332 332 332 333 332 331 330 330 329 329 330 329 329 331 331 331 331 330 329 330 329 328 329 330 330 330
334 335 336 335 336 335 334 334 333 332 332 331 332 330 330 330 330 330 330 330 331 330 331 331 331 332 332 332 332 331 332 331 331 331 331 331 332 332 332 333 332 331 331 330 329 329 330 329 329 331 331 331 331 330 329 329 329 328 329 329 330 330
334 333 333 333 335 335 334 332 330 330 330 330 331 330 329 328 328 330 329 329 329 328 327 328 330 330 330 330 331 330 331 331 331 331 332 331 332 332 332 332 332 331 330 330 330 330 331 331 330 330 331 333 333 331 328 327 328 328 328 328 329 329
332 331 330 333 335 334 333 331 329 329 329 329 329 327 326 325 327 329 328 329 329 328 326 328 330 329 328 329 329 329 329 331 331 331 332 331 331 332 331 331 331 331 330 330 330 331 331 332 331 330 332 332 332 332 330 327 326 327 327 328 328 328
331 330 330 333 334 332 331 330 328 328 327 327 326 325 325 326 328 329 328 328 328 327 325 326 327 326 326 328 329 328 328 330 331 331 331 331 331 332 331 330 330 330 330 330 331 331 331 331 330 329 330 330 332 334 331 327 326 326 326 327 327 328
332 332 331 332 332 331 330 329 328 327 326 325 324 325 325 325 326 327 327 328 327 326 326 325 325 325 326 327 327 328 327 328 330 330 330 330 330 330 330 330 329 329 330 330 330 330 330 331 330 329 328 329 332 333 330 328 329 327 326 327 327 328
334 333 331 331 331 331 331 329 328 326 324 323 324 324 324 323 324 325 326 327 327 326 325 324 325 325 327 326 327 328 327 326 327 328 327 328 328 329 329 329 329 329 329 329 329 330 330 330 330 329 329 329 329 330 329 329 329 327 327 327 326 327
334 332 330 331 331 332 330 328 326 323 322 323 324 323 323 323 324 325 324 325 326 325 324 324 325 325 325 326 326 327 326 326 326 326 326 326 327 328 328 329 329 329 329 329 329 329 330 330 330 329 329 329 329 330 329 328 327 327 327 327 325 326
332 331 330 330 331 331 328 326 324 324 324 325 325 323 322 323 324 323 323 324 325 325 324 325 325 325 324 324 324 325 325 325 326 326 326 325 326 327 329 329 329 329 329 328 328 329 329 329 328 329 329 329 329 329 329 328 327 326 325 326 326 326
330 329 329 330 330 328 325 325 327 328 327 326 325 324 323 323 322 323 324 325 325 325 324 324 324 325 325 323 324 324 323 324 325 325 324 325 326 327 329 329 329 329 329 328 327 328 328 328 328 328 328 328 328 328 327 327 327 326 325 325 326 326
328 326 326 328 327 324 325 327 329 328 327 326 324 323 323 323 323 324 325 325 325 325 325 324 324 324 324 324 323 323 323 323 325 325 325 325 325 326 327 327 327 328 328 328 328 328 327 327 327 326 326 326 326 326 326 327 327 326 325 324 325 326
326 324 323 324 324 324 326 329 328 327 326 325 323 322 322 323 324 325 323 324 325 325 324 324 323 323 323 323 322 322 322 322 322 323 323 323 324 325 325 325 326 326 327 327 326 326 326 326 326 326 326 326 325 326 325 326 327 327 325 324 325 325
325 323 321 322 326 326 325 327 327 326 325 323 322 322 323 323 324 324 323 325 325 324 323 322 322 322 321 321 321 323 323 321 320 320 320 321 322 323 322 323 324 324 324 323 321 320 320 321 321 322 323 323 325 325 325 325 326 326 325 325 325 324
325 323 321 324 327 323 321 326 327 325 324 322 322 322 322 323 324 323 324 326 325 324 322 321 322 323 321 320 320 321 322 321 320 319 319 320 320 321 320 320 321 321 321 319 317 316 316 316 316 316 317 318 321 323 324 324 324 325 325 325 325 323
326 323 322 325 326 322 323 329 327 324 323 322 322 322 323 323 323 324 325 325 325 323 321 321 322 322 321 320 320 320 320 321 320 318 318 318 318 318 317 316 317 318 318 317 316 315 315 315 315 315 315 315 316 317 319 321 321 322 324 324 323 321
327 325 322 324 326 326 328 330 327 324 323 323 322 323 323 323 324 323 324 325 324 322 320 320 320 319 319 319 318 318 319 319 319 317 317 316 316 316 316 316 315 315 316 316 316 316 316 316 315 315 314 314 315 315 315 315 315 316 320 321 320 320
328 328 325 323 326 328 329 330 328 325 324 323 323 324 324 324 323 322 323 324 323 321 319 318 318 317 316 316 317 318 318 318 318 317 316 316 315 315 316 316 315 316 316 316 316 316 316 316 315 314 314 313 313 315 315 314 313 313 315 317 318 318

ECMWFFLT2_925_thetae_048.txt.gz
Theta_e
341 341 341 342 341 342 341 340 337 333 330 333 336 336 336 337 339 339 338 338 337 337 336 336 336 336 335 334 335 334 334 334 334 330 324 322 323 323 324 324 324 324 325 328 330 331 330 330 330 330 331 331 331 331 334 334 333 331 329 327 328 326
341 341 341 341 342 341 341 339 334 331 333 336 336 336 336 337 338 338 337 336 335 335 335 335 335 335 334 334 335 335 335 334 334 330 323 322 323 323 324 323 324 324 324 327 330 331 330 330 329 330 330 331 330 331 334 335 333 331 329 328 328 327
341 341 341 341 341 341 340 335 330 332 335 336 335 335 335 336 337 337 336 335 334 334 334 334 334 334 333 334 335 336 336 334 334 331 324 322 324 323 324 324 324 325 325 327 328 329 330 330 329 329 329 329 329 330 333 335 333 331 330 328 328 328
342 342 341 340 340 339 336 332 330 334 336 335 335 334 334 335 336 336 335 334 334 334 333 334 335 336 335 334 335 335 335 333 333 332 326 323 324 325 326 326 325 326 327 328 329 330 331 332 331 330 330 329 329 329 332 335 332 330 330 328 328 328
342 341 340 339 338 336 332 331 333 335 335 335 335 334 334 336 336 335 334 334 335 334 334 336 337 337 336 334 334 334 333 333 332 332 329 325 324 325 326 327 327 328 329 330 331 332 332 332 330 331 331 330 329 329 332 334 332 330 330 328 328 328
340 340 339 337 336 333 331 333 335 336 335 335 334 333 335 336 335 335 334 335 335 335 335 336 337 337 336 335 334 333 333 333 332 332 331 329 327 326 327 328 329 330 330 331 332 331 331 330 329 330 330 329 330 331 333 333 331 330 329 329 329 328
338 338 337 335 334 332 332 334 335 336 336 335 334 333 335 336 335 334 334 334 335 334 334 335 335 336 336 335 334 335 335 334 334 334 332 331 331 330 330 331 332 332 332 332 332 331 329 329 328 329 329 329 331 333 333 333 331 329 330 330 330 329
336 336 335 333 332 332 334 335 335 336 336 335 334 334 335 335 334 334 333 334 334 334 334 334 334 335 336 335 335 335 335 335 335 334 333 332 332 332 333 332 332 333 333 333 332 330 329 329 328 328 329 328 331 333 333 333 331 329 329 329 330 329
334 334 333 332 332 333 334 335 336 336 335 334 334 335 335 335 334 334 333 333 334 334 333 334 334 334 335 335 335 335 335 335 334 334 334 333 332 332 333 333 333 333 333 333 332 330 329 329 328 329 329 328 329 331 332 333 332 329 329 328 329 329
333 334 332 333 334 334 336 336 336 336 335 334 335 335 335 334 334 334 333 333 335 334 333 334 334 333 334 334 334 334 334 334 334 334 334 334 333 332 332 332 333 333 332 332 332 330 329 329 329 329 329 328 328 329 331 333 332 330 329 328 329 329
335 335 333 335 336 335 336 336 335 335 334 335 336 335 334 333 332 332 333 334 334 333 333 334 334 334 334 334 334 334 333 333 333 333 333 333 333 332 332 332 332 332 332 332 331 331 330 329 329 329 328 328 328 328 329 331 331 329 328 328 328 328
337 337 336 336 335 335 336 336 336 335 335 335 335 334 333 333 332 331 333 334 333 332 332 333 333 334 334 334 334 333 333 332 333 333 332 332 332 332 332 332 332 331 331 331 331 331 331 330 329 328 328 327 327 329 329 330 330 329 329 327 327 327
337 337 336 336 335 335 335 335 336 335 335 334 334 333 333 333 333 333 334 334 333 332 332 332 333 333 334 334 333 333 332 332 332 332 332 332 332 332 332 332 332 331 332 331 331 331 330 330 329 328 328 327 327 328 328 329 329 329 330 327 325 327
338 337 337 336 336 335 335 335 335 334 334 333 333 334 333 333 333 333 333 333 333 333 332 332 333 333 334 334 333 332 332 332 332 332 331 331 331 332 331 331 331 332 332 331 331 330 330 329 328 328 328 327 327 327 327 327 327 329 331 328 326 327
338 338 337 337 337 335 335 335 335 334 334 333 333 333 333 332 332 332 333 333 333 333 333 332 333 334 334 333 333 332 332 332 332 332 331 331 331 331 331 331 331 332 332 332 331 329 329 329 328 328 327 327 327 326 327 327 327 330 331 330 327 327
337 336 337 338 337 335 334 334 335 335 334 333 332 333 333 332 333 333 333 333 333 333 333 332 333 334 333 333 333 333 333 333 333 333 332 331 331 331 331 330 331 331 331 332 331 329 329 329 328 328 328 328 327 326 326 327 329 330 331 330 327 326
336 333 334 336 336 335 334 333 334 334 333 333 332 333 334 334 334 334 334 334 333 333 333 333 333 334 333 333 334 333 333 334 334 333 332 331 331 331 331 331 331 331 331 332 330 329 328 329 329 329 328 328 327 327 326 329 331 331 331 330 327 326
336 334 333 334 335 335 335 334 333 333 333 334 334 335 335 335 335 334 334 333 333 333 332 333 333 333 333 334 333 333 334 334 333 334 332 331 330 331 332 332 331 330 331 331 330 329 329 329 330 329 329 328 328 328 327 329 330 330 331 332 330 328
336 334 333 333 334 333 334 333 332 334 335 336 336 335 335 334 334 334 333 332 333 332 332 333 332 331 332 334 333 333 334 333 333 333 332 331 331 332 332 332 332 331 330 330 330 329 329 329 330 329 329 329 329 328 328 329 330 331 332 333 333 332
336 335 334 333 332 332 333 333 333 336 337 337 336 335 334 333 333 334 332 331 331 332 332 332 332 331 332 333 333 332 333 332 332 332 331 331 331 332 332 332 332 332 330 329 330 329 328 329 329 329 329 329 329 329 328 329 330 331 332 332 333 333
337 337 336 335 334 334 335 334 335 337 337 336 336 335 334 333 332 332 331 330 329 330 331 332 332 331 332 332 332 332 332 332 332 332 331 331 332 332 333 332 332 331 330 329 329 329 329 330 329 329 329 328 329 329 329 329 328 329 330 331 332 332
336 337 336 336 336 336 335 335 336 337 337 336 336 335 334 332 331 330 331 330 329 329 330 331 331 330 331 332 331 331 331 331 331 331 331 331 332 332 332 332 331 331 330 329 329 328 330 330 330 330 329 328 329 329 328 328 328 328 329 330 331 331
335 336 335 335 335 335 335 336 337 336 336 336 335 335 333 331 330 329 329 329 328 329 329 329 330 329 330 330 330 331 331 331 330 331 331 331 331 331 332 332 332 331 330 329 329 329 330 330 330 329 329 330 331 330 329 327 327 328 328 328 329 329
334 335 335 335 335 335 335 335 335 335 334 333 333 333 332 331 330 329 328 327 326 327 328 329 329 328 328 328 328 329 330 330 330 331 331 330 331 330 331 332 331 331 329 329 330 330 331 331 330 329 330 330 328 329 332 328 325 326 327 327 327 327
334 336 336 335 335 335 335 333 332 332 331 330 330 330 330 330 329 329 328 327 327 327 328 329 328 327 327 326 326 327 328 329 329 330 330 330 331 331 330 330 331 330 329 329 330 331 332 331 330 328 329 329 328 331 334 328 325 326 326 327 327 327
334 336 336 334 334 334 334 331 330 330 329 327 328 328 328 328 327 328 328 327 326 326 328 329 328 327 327 326 326 327 327 329 329 330 330 330 330 331 330 330 330 330 329 329 330 330 331 330 329 328 328 329 329 331 330 327 327 328 326 326 327 327
335 336 335 334 334 333 332 330 329 329 327 326 326 326 327 327 327 327 327 326 325 325 326 326 325 325 326 326 327 327 327 328 329 329 329 329 329 330 330 329 329 329 330 330 329 330 330 330 329 328 329 329 328 328 327 327 328 329 327 327 327 327
334 333 334 334 333 331 330 329 328 328 327 325 325 326 328 328 326 326 327 326 325 325 324 324 324 325 326 326 327 327 327 328 328 327 327 328 328 328 328 329 328 329 329 329 329 329 330 330 329 328 329 329 328 327 327 327 326 327 327 327 327 327
332 331 333 333 331 330 329 328 328 327 325 324 325 327 328 327 326 326 327 326 325 324 324 324 325 326 325 325 326 326 326 326 326 326 326 327 327 327 328 328 328 328 328 328 329 329 329 329 328 328 329 329 328 327 327 327 326 325 325 327 328 328
331 331 332 331 329 328 328 328 327 325 324 324 325 325 326 326 325 325 325 325 325 324 324 325 326 326 325 323 324 325 325 326 326 325 326 327 327 327 328 328 328 328 328 327 328 328 328 328 328 328 329 329 328 327 326 326 325 325 324 325 327 327
331 331 331 330 329 327 327 327 325 324 323 323 323 323 324 324 323 324 325 325 324 324 325 326 325 324 324 323 323 324 325 325 325 324 325 327 328 328 328 328 328 327 327 327 327 327 327 328 328 328 328 328 328 327 327 326 325 325 324 323 325 326
332 331 331 330 328 327 326 325 323 323 323 323 323 323 324 322 322 324 325 324 324 324 324 325 325 324 323 323 323 324 325 324 324 324 325 326 327 328 328 328 328 327 327 327 327 327 327 327 327 327 327 327 327 327 327 326 326 325 324 324 325 324
333 331 331 330 328 326 325 323 322 324 323 323 323 323 322 322 323 324 325 324 324 323 323 324 324 324 323 322 322 323 324 324 324 323 324 325 325 326 326 326 326 325 325 325 325 325 326 326 326 325 326 326 326 326 327 326 325 325 325 325 324 324
332 331 330 330 328 326 325 325 325 325 324 323 323 322 322 323 325 325 325 324 324 324 323 322 323 323 322 322 321 321 322 323 322 322 323 323 323 324 325 325 322 319 318 319 320 321 320 321 321 322 324 326 325 326 326 326 325 325 325 325 324 324
330 330 330 330 328 326 326 328 327 325 324 324 323 322 322 324 324 324 324 324 324 324 323 322 322 321 321 322 322 320 319 320 320 320 320 321 321 322 323 323 319 316 316 316 315 316 316 316 317 318 320 322 324 325 326 326 325 324 324 324 324 324
329 329 329 328 327 326 328 328 327 325 324 323 322 321 323 324 323 323 324 324 324 322 320 321 321 321 320 320 321 320 318 318 319 319 319 319 318 318 320 320 317 315 316 315 315 315 315 315 315 315 316 316 319 322 324 326 324 323 322 322 323 323
328 328 327 326 327 327 329 328 325 324 323 322 321 321 322 324 323 324 325 324 323 321 321 322 322 321 320 319 320 320 318 317 318 318 317 316 315 315 316 317 316 316 316 315 314 314 314 314 314 314 314 313 313 315 319 322 323 323 322 322 322 322